Temp
-10 -10 -10 -10 -10 -10 -10 -10 -10 -10 -10 -10 -10 -10 -10 -10 -10 -10 -10 -10 -10 -10 -10 -10 -10 -10 -10 -10 -10 -10 -10 -10 -10 -10 -10 -10 -10 -10 -10 -10 -11 -11 -11 -11 -11
-10 -10 -10 -10 -10 -10 -10 -10 -10 -10 -10 -10 -10 -10 -10 -10 -10 -10 -10 -10 -10 -10 -10 -10 -10 -10 -10 -10 -10 -10 -10 -10 -10 -10 -10 -10 -10 -10 -10 -10 -11 -11 -11 -11 -11
-11 -11 -10 -10 -10 -10 -10 -10 -10 -10 -10 -10 -10 -10 -10 -10 -10 -10 -10 -10 -10 -10 -10 -10 -10 -10 -10 -10 -10 -10 -10 -10 -10 -10 -10 -10 -10 -10 -10 -10 -10 -11 -11 -11 -11
-11 -11 -11 -11 -10 -10 -10 -10 -10 -10 -10 -10 -10 -10 -10 -10 -10 -10 -10 -10 -10 -10 -10 -10 -10 -10 -10 -10 -10 -10 -10 -10 -10 -10 -10 -10 -10 -10 -10 -10 -10 -10 -11 -11 -11
-11 -11 -11 -11 -11 -11 -11 -10 -10 -10 -10 -10 -10 -10 -10 -10 -10 -10 -10 -10 -10 -10 -10 -10 -10 -10 -10 -10 -10 -10 -10 -10 -10 -10 -10 -10 -10 -10 -10 -10 -10 -11 -11 -11 -11
-12 -11 -11 -11 -11 -11 -11 -11 -11 -10 -10 -10 -10 -10 -10 -10 -10 -10 -10 -10 -10 -10 -10 -10 -10 -10 -10 -10 -10 -10 -10 -10 -10 -10 -11 -11 -10 -10 -10 -10 -10 -10 -10 -10 -10
-12 -12 -12 -11 -11 -11 -11 -11 -11 -11 -11 -10 -10 -10 -10 -10 -10 -10 -10 -10 -10 -10 -10 -10 -10 -10 -10 -10 -10 -10 -10 -10 -10 -10 -11 -10 -10 -10 -10 -10 -10 -10 -10 -10 -10
-12 -12 -12 -12 -12 -11 -11 -11 -11 -11 -11 -11 -11 -10 -10 -10 -10 -10 -10 -10 -10 -10 -10 -10 -10 -10 -10 -10 -10 -10 -11 -11 -11 -11 -11 -11 -10 -10 -10 -10 -10 -10 -10 -10 -10
-12 -12 -12 -12 -12 -12 -12 -11 -11 -11 -11 -11 -11 -10 -10 -11 -11 -10 -10 -10 -10 -10 -10 -10 -10 -10 -10 -10 -11 -11 -11 -11 -11 -11 -11 -11 -10 -10 -10 -10 -10 -10 -10 -10 -10
-12 -12 -12 -12 -12 -12 -12 -11 -11 -11 -11 -11 -11 -11 -10 -11 -11 -11 -11 -11 -11 -11 -11 -11 -11 -11 -11 -11 -11 -10 -11 -11 -11 -11 -11 -11 -11 -10 -10 -10 -10 -10 -10 -10 -10
-13 -13 -12 -12 -12 -12 -12 -12 -12 -11 -11 -11 -11 -11 -11 -11 -11 -11 -11 -11 -11 -11 -11 -11 -11 -11 -12 -11 -11 -11 -11 -11 -11 -11 -11 -11 -11 -10 -10 -10 -10 -10 -10 -10 -10
-13 -13 -12 -12 -13 -13 -12 -12 -12 -12 -11 -11 -11 -11 -11 -11 -11 -12 -11 -11 -11 -11 -12 -11 -11 -12 -11 -11 -11 -11 -11 -11 -11 -11 -10 -10 -10 -11 -11 -11 -10 -10 -10 -10 -11
-13 -13 -13 -13 -13 -12 -13 -13 -13 -13 -12 -12 -12 -12 -12 -12 -12 -12 -12 -12 -12 -11 -12 -11 -11 -12 -12 -12 -11 -11 -11 -11 -11 -11 -11 -10 -10 -10 -10 -10 -11 -11 -11 -11 -11
-13 -13 -13 -13 -13 -13 -13 -14 -14 -13 -13 -11 -12 -11 -11 -12 -11 -12 -12 -12 -12 -12 -12 -12 -12 -12 -12 -12 -12 -12 -12 -12 -11 -11 -11 -10 -9 -9 -10 -10 -11 -11 -11 -11 -12
-14 -13 -13 -13 -13 -13 -14 -15 -15 -15 -13 -12 -11 -11 -12 -12 -11 -12 -12 -12 -12 -12 -12 -12 -12 -12 -12 -12 -12 -12 -12 -12 -12 -11 -11 -10 -10 -9 -11 -11 -11 -11 -12 -12 -12
-14 -14 -13 -13 -12 -13 -15 -15 -15 -15 -11 -11 -11 -11 -11 -12 -12 -12 -12 -13 -13 -12 -12 -12 -13 -13 -12 -13 -13 -12 -12 -12 -12 -11 -10 -10 -11 -9 -11 -12 -12 -12 -12 -12 -12
-14 -14 -14 -13 -13 -13 -15 -15 -16 -13 -11 -10 -10 -11 -11 -12 -12 -12 -13 -13 -13 -13 -13 -13 -13 -13 -13 -13 -13 -13 -13 -12 -12 -11 -10 -11 -11 -10 -11 -12 -12 -12 -13 -13 -13
-15 -14 -14 -14 -14 -14 -14 -15 -14 -10 -11 -11 -11 -11 -11 -12 -12 -13 -13 -13 -13 -13 -14 -13 -13 -13 -13 -14 -13 -13 -13 -13 -12 -12 -11 -11 -11 -11 -11 -12 -12 -13 -13 -13 -13
-15 -15 -14 -14 -14 -14 -15 -16 -12 -11 -12 -12 -13 -12 -12 -12 -12 -13 -13 -13 -14 -14 -14 -14 -13 -13 -13 -13 -14 -13 -12 -13 -13 -13 -12 -11 -11 -11 -11 -12 -12 -13 -13 -13 -13
-15 -15 -15 -14 -14 -14 -15 -15 -12 -13 -13 -13 -13 -13 -13 -13 -13 -13 -13 -12 -14 -15 -15 -14 -13 -13 -13 -13 -13 -13 -14 -14 -13 -13 -12 -11 -11 -11 -12 -12 -13 -13 -14 -14 -14
-15 -15 -15 -15 -15 -15 -15 -13 -13 -14 -14 -14 -14 -14 -13 -13 -14 -14 -13 -13 -14 -15 -15 -15 -14 -13 -13 -13 -13 -13 -13 -14 -14 -13 -13 -12 -11 -12 -12 -13 -13 -14 -14 -14 -14
-16 -16 -15 -15 -15 -15 -15 -13 -13 -14 -14 -14 -14 -14 -13 -13 -14 -14 -13 -14 -15 -15 -15 -15 -15 -14 -14 -13 -13 -14 -13 -14 -13 -13 -13 -13 -12 -13 -13 -13 -13 -14 -15 -15 -16
-16 -16 -16 -15 -15 -15 -15 -14 -14 -14 -14 -14 -14 -14 -14 -14 -14 -14 -14 -14 -15 -15 -15 -15 -14 -15 -14 -13 -13 -12 -13 -13 -14 -14 -13 -14 -12 -13 -13 -14 -14 -15 -16 -16 -16
-18 -16 -16 -16 -15 -16 -15 -15 -15 -14 -14 -14 -14 -15 -14 -14 -14 -13 -13 -14 -15 -15 -15 -15 -15 -14 -13 -14 -14 -14 -14 -14 -15 -14 -13 -12 -13 -14 -14 -15 -16 -16 -16 -16 -17
-17 -17 -16 -16 -16 -16 -15 -15 -15 -15 -15 -15 -15 -14 -14 -15 -14 -13 -14 -15 -15 -15 -14 -15 -14 -15 -14 -14 -14 -14 -14 -15 -15 -14 -15 -13 -14 -15 -16 -16 -16 -16 -17 -17 -17
-17 -16 -17 -17 -17 -16 -16 -16 -16 -16 -16 -15 -15 -14 -15 -14 -14 -14 -15 -15 -15 -15 -15 -15 -14 -15 -14 -14 -15 -15 -14 -14 -14 -14 -15 -15 -14 -15 -16 -16 -17 -17 -17 -17 -17
-19 -18 -17 -17 -17 -17 -17 -16 -16 -17 -16 -15 -15 -15 -15 -15 -15 -15 -15 -15 -15 -15 -15 -15 -15 -15 -14 -15 -15 -15 -12 -15 -14 -15 -15 -16 -15 -16 -16 -17 -17 -17 -17 -18 -18
Height
5848 5851 5854 5856 5859 5862 5865 5867 5869 5871 5872 5874 5875 5876 5876 5877 5878 5878 5879 5881 5881 5882 5883 5884 5884 5884 5884 5885 5884 5883 5883 5881 5880 5881 5880 5878 5878 5877 5877 5877 5876 5875 5875 5874 5873
5843 5846 5849 5852 5855 5857 5861 5863 5866 5868 5869 5871 5872 5873 5874 5875 5875 5876 5877 5878 5879 5880 5881 5882 5882 5882 5882 5882 5882 5881 5880 5879 5877 5877 5876 5875 5874 5874 5875 5875 5874 5873 5872 5872 5871
5838 5841 5844 5847 5849 5852 5855 5859 5861 5863 5865 5867 5869 5870 5871 5872 5873 5873 5874 5875 5876 5877 5878 5878 5878 5879 5879 5879 5879 5878 5877 5875 5874 5873 5873 5872 5871 5871 5870 5871 5870 5871 5871 5869 5869
5832 5835 5838 5842 5844 5847 5850 5853 5856 5858 5860 5862 5864 5866 5867 5868 5870 5870 5871 5872 5873 5873 5874 5874 5874 5874 5875 5875 5874 5874 5873 5871 5870 5869 5869 5868 5868 5867 5867 5866 5867 5866 5866 5866 5865
5825 5829 5832 5835 5838 5841 5844 5847 5849 5852 5855 5857 5859 5861 5862 5863 5865 5866 5867 5868 5868 5869 5869 5870 5870 5870 5870 5870 5869 5869 5868 5867 5865 5865 5865 5864 5863 5863 5863 5862 5862 5862 5862 5861 5860
5818 5822 5825 5828 5831 5834 5837 5841 5843 5846 5848 5851 5853 5855 5857 5858 5860 5861 5862 5863 5863 5864 5864 5865 5865 5864 5865 5864 5864 5864 5863 5862 5861 5860 5860 5859 5858 5858 5858 5858 5858 5857 5857 5856 5855
5810 5814 5817 5821 5824 5827 5830 5833 5836 5839 5841 5843 5846 5848 5851 5852 5854 5855 5856 5857 5857 5858 5858 5859 5859 5859 5859 5858 5858 5858 5858 5857 5856 5855 5854 5853 5853 5853 5853 5853 5853 5852 5852 5851 5851
5800 5804 5809 5813 5816 5819 5822 5825 5828 5830 5833 5836 5838 5841 5843 5845 5846 5848 5849 5850 5851 5851 5852 5852 5852 5852 5852 5852 5852 5852 5852 5851 5851 5850 5848 5849 5847 5847 5847 5848 5848 5847 5846 5845 5845
5789 5794 5798 5803 5807 5811 5814 5816 5819 5822 5825 5828 5831 5833 5836 5839 5839 5839 5841 5842 5843 5844 5844 5845 5845 5845 5845 5845 5844 5844 5844 5845 5844 5844 5842 5843 5841 5840 5841 5842 5841 5841 5840 5839 5839
5778 5782 5787 5792 5796 5801 5804 5807 5810 5813 5816 5819 5822 5825 5828 5830 5831 5832 5832 5833 5834 5835 5836 5837 5837 5838 5839 5837 5836 5836 5838 5839 5837 5837 5836 5836 5836 5835 5834 5834 5834 5833 5833 5832 5832
5767 5771 5776 5780 5785 5790 5794 5797 5801 5804 5807 5810 5812 5814 5817 5819 5822 5823 5824 5824 5825 5827 5828 5828 5829 5832 5830 5828 5828 5829 5831 5832 5832 5828 5827 5829 5829 5829 5828 5828 5827 5826 5826 5825 5825
5756 5760 5765 5769 5774 5778 5783 5786 5790 5793 5795 5798 5801 5803 5806 5808 5811 5814 5815 5816 5817 5818 5819 5820 5821 5822 5821 5821 5821 5822 5822 5825 5824 5820 5819 5820 5822 5822 5822 5821 5820 5820 5819 5819 5819
5742 5747 5753 5758 5763 5768 5772 5775 5778 5781 5781 5789 5790 5792 5796 5798 5800 5802 5805 5807 5808 5809 5811 5811 5812 5814 5814 5814 5813 5814 5813 5815 5814 5813 5810 5811 5811 5814 5814 5813 5813 5814 5813 5813 5813
5728 5734 5740 5745 5752 5756 5762 5761 5765 5769 5767 5771 5779 5779 5783 5787 5788 5793 5796 5799 5800 5802 5802 5800 5804 5805 5806 5805 5805 5803 5805 5803 5804 5803 5802 5803 5799 5804 5805 5804 5805 5806 5807 5807 5806
5714 5719 5726 5733 5738 5745 5749 5748 5752 5757 5755 5760 5764 5769 5774 5777 5780 5785 5787 5788 5790 5792 5793 5794 5794 5795 5795 5799 5795 5794 5795 5794 5794 5793 5790 5791 5793 5792 5795 5797 5796 5797 5797 5796 5796
5700 5705 5709 5716 5725 5733 5728 5732 5738 5742 5738 5743 5749 5758 5762 5766 5769 5772 5775 5778 5780 5781 5781 5782 5784 5784 5786 5787 5786 5784 5783 5785 5784 5781 5777 5783 5784 5780 5788 5788 5788 5787 5787 5786 5786
5687 5691 5697 5703 5712 5710 5707 5712 5716 5721 5729 5733 5736 5744 5752 5756 5760 5762 5766 5767 5768 5769 5771 5772 5773 5773 5773 5775 5775 5775 5775 5772 5770 5768 5770 5773 5772 5773 5775 5779 5781 5779 5778 5777 5776
5674 5677 5683 5691 5694 5692 5691 5691 5692 5718 5718 5721 5725 5731 5737 5742 5747 5750 5752 5754 5757 5759 5759 5758 5759 5761 5761 5763 5763 5762 5762 5761 5758 5760 5762 5761 5759 5765 5766 5767 5768 5770 5771 5770 5769
5660 5663 5664 5674 5678 5677 5678 5671 5685 5702 5705 5709 5713 5717 5723 5727 5733 5736 5738 5740 5743 5747 5747 5745 5745 5747 5748 5749 5751 5752 5749 5755 5751 5751 5750 5750 5752 5754 5756 5756 5757 5759 5759 5759 5757
5644 5646 5650 5659 5664 5661 5656 5658 5678 5688 5691 5693 5701 5706 5709 5714 5718 5722 5725 5728 5730 5734 5732 5732 5731 5733 5735 5737 5738 5739 5744 5740 5740 5741 5741 5741 5742 5743 5744 5744 5746 5746 5747 5747 5746
5625 5627 5638 5646 5648 5640 5635 5654 5664 5670 5675 5679 5687 5692 5696 5698 5703 5705 5710 5713 5715 5720 5719 5720 5720 5721 5722 5725 5730 5730 5729 5731 5732 5731 5731 5732 5733 5734 5733 5733 5734 5735 5735 5734 5732
5610 5613 5623 5628 5625 5623 5626 5646 5651 5653 5659 5666 5671 5678 5680 5683 5687 5690 5693 5701 5703 5706 5706 5709 5707 5708 5711 5713 5714 5715 5716 5717 5718 5723 5724 5722 5722 5720 5720 5720 5721 5722 5720 5718 5717
5592 5602 5605 5609 5605 5609 5619 5628 5632 5640 5646 5653 5657 5663 5667 5669 5673 5678 5681 5688 5689 5692 5695 5696 5694 5696 5699 5700 5700 5702 5706 5710 5710 5710 5711 5708 5711 5708 5708 5709 5708 5707 5705 5703 5700
5578 5583 5588 5587 5594 5600 5607 5614 5620 5627 5632 5640 5646 5647 5653 5655 5660 5664 5669 5671 5676 5679 5681 5679 5680 5683 5686 5691 5692 5692 5697 5699 5697 5695 5697 5697 5698 5695 5697 5696 5695 5692 5689 5687 5684
5558 5565 5573 5573 5579 5587 5593 5600 5605 5611 5617 5622 5627 5633 5639 5641 5646 5651 5654 5657 5661 5666 5666 5664 5666 5670 5675 5676 5676 5679 5681 5682 5679 5684 5678 5687 5681 5684 5682 5680 5678 5676 5674 5670 5669
5540 5548 5556 5564 5568 5572 5576 5582 5591 5598 5602 5607 5612 5621 5625 5625 5633 5639 5640 5641 5645 5649 5650 5650 5652 5654 5656 5661 5661 5660 5664 5665 5664 5664 5662 5665 5668 5669 5670 5662 5660 5657 5655 5655 5654
5524 5530 5538 5544 5552 5556 5562 5570 5579 5583 5587 5594 5602 5604 5605 5612 5615 5619 5620 5625 5627 5630 5633 5635 5637 5637 5638 5645 5642 5636 5649 5648 5650 5648 5649 5646 5657 5653 5649 5646 5643 5641 5639 5640 5639
Wind_Speed
27 26 25 24 22 21 19 18 16 16 15 13 10 8 7 6 7 7 7 8 9 9 10 10 10 10 10 11 12 14 15 16 17 17 16 12 8 9 8 7 6 7 7 7 5
29 29 28 26 25 24 23 21 20 18 17 16 14 12 10 9 9 9 10 11 12 13 14 14 14 14 15 15 15 16 17 19 21 20 16 11 10 12 12 9 9 8 9 8 7
33 31 31 30 29 27 26 24 23 22 20 19 18 17 15 13 12 11 12 14 15 16 18 18 19 19 19 19 19 19 20 22 21 19 15 12 13 15 14 12 13 11 10 11 11
36 35 35 34 33 31 30 28 27 26 25 23 22 21 20 17 16 16 16 16 17 18 20 22 22 22 22 21 21 21 22 22 20 18 15 15 16 15 14 15 14 14 15 13 14
40 39 38 37 36 34 33 32 31 30 29 28 26 25 23 22 21 20 20 21 20 20 21 22 22 23 24 24 24 23 24 23 20 19 18 19 19 16 15 15 16 17 16 16 15
43 42 41 41 39 38 37 36 34 33 33 32 30 29 27 27 25 25 25 25 24 25 26 26 26 27 27 28 27 25 24 23 22 23 22 22 21 18 16 16 17 17 16 15 15
46 45 44 44 43 42 41 40 39 37 36 35 34 33 31 31 30 30 29 29 29 30 31 30 31 31 30 30 30 27 25 24 25 26 25 24 22 20 19 19 19 19 18 18 18
50 49 47 47 45 44 43 43 42 41 39 39 38 37 35 35 34 33 34 34 33 32 31 31 32 32 31 30 30 29 27 27 26 26 26 24 25 23 22 20 20 20 21 21 22
53 52 51 50 49 48 47 46 45 44 43 42 41 41 40 37 37 38 37 36 36 35 35 34 34 34 33 33 33 30 30 28 27 25 27 26 24 25 24 24 24 24 25 24 24
54 53 53 52 52 51 50 50 49 48 47 46 46 45 44 41 41 40 39 39 38 38 37 36 36 35 32 32 33 33 28 27 26 27 28 27 26 27 27 27 28 28 28 27 26
57 56 55 53 53 53 53 52 52 52 51 49 49 48 47 44 43 42 41 41 41 41 39 37 38 31 33 36 34 31 29 27 28 31 32 31 30 31 30 30 32 31 30 29 28
57 58 57 56 55 53 53 53 52 53 53 52 52 51 49 47 46 44 44 44 42 39 38 35 32 31 33 33 33 31 31 30 31 34 35 34 33 33 32 33 33 32 30 29 28
59 60 59 59 61 58 53 54 54 54 57 54 54 54 51 51 48 46 43 40 38 37 34 36 36 34 35 35 36 35 35 34 36 36 38 37 37 34 35 35 33 32 31 31 30
65 66 62 60 59 57 56 55 55 54 60 61 53 55 52 49 49 44 41 38 37 37 37 39 36 35 35 35 36 38 36 38 39 40 41 39 42 35 33 34 30 30 30 32 32
62 68 71 66 65 62 55 57 58 57 62 60 56 54 52 53 50 41 40 39 38 37 38 39 39 38 40 38 42 43 40 42 42 44 46 44 41 41 33 30 29 30 32 34 34
56 59 65 70 65 66 63 61 60 59 64 62 57 52 49 47 46 45 41 40 38 40 42 42 41 43 44 41 41 43 46 45 45 48 52 45 41 45 32 29 29 31 33 33 33
60 59 58 63 60 69 70 66 67 69 66 64 61 58 52 49 46 44 42 40 46 43 42 42 46 45 46 47 45 43 42 45 48 48 46 41 41 42 38 32 30 31 32 32 32
58 59 60 59 57 62 76 76 78 64 68 68 66 62 58 53 48 48 49 47 46 48 46 51 49 46 47 47 45 43 44 44 44 43 41 41 44 39 38 38 36 35 33 32 32
52 49 54 56 53 57 70 74 73 65 68 69 68 65 61 61 55 51 51 52 52 49 48 53 56 52 46 44 45 43 44 36 39 40 42 42 40 40 40 39 39 37 36 36 37
49 57 57 58 44 51 69 75 62 71 71 71 67 65 65 64 64 59 55 51 52 48 49 51 54 53 49 48 49 47 40 40 40 39 40 42 41 42 42 43 41 41 40 39 38
48 58 62 57 60 64 66 64 56 58 64 65 65 62 61 60 63 63 56 53 49 44 47 46 47 49 49 48 44 44 43 41 40 43 44 44 40 41 44 46 47 46 42 42 43
49 59 57 59 66 72 73 56 58 56 58 57 57 52 54 55 56 57 54 48 43 40 41 42 45 48 47 47 46 47 48 46 47 43 43 46 47 50 50 50 49 48 49 46 47
59 62 65 68 68 67 68 68 62 60 63 58 57 53 51 52 54 54 53 44 40 39 40 41 45 45 47 49 50 51 50 44 43 44 44 49 52 55 56 54 51 51 52 53 53
64 65 68 72 73 65 65 67 69 68 65 62 57 57 58 57 56 55 53 48 44 45 44 49 49 48 46 46 45 46 47 48 50 55 56 56 56 57 56 57 57 56 58 57 58
67 72 70 70 68 68 63 63 60 66 68 67 66 64 61 62 60 57 56 54 50 49 50 52 51 52 47 48 52 52 52 55 61 61 63 59 65 60 57 60 63 61 59 60 60
73 74 68 66 60 62 61 59 58 60 62 66 66 68 68 66 62 56 54 58 58 56 55 56 58 56 57 53 55 60 59 59 61 64 70 69 66 61 56 60 62 61 63 61 61
69 75 71 69 73 64 62 62 57 54 55 60 55 57 62 63 60 61 62 62 63 61 59 60 59 58 60 55 58 66 62 65 66 67 67 68 59 59 59 60 62 62 65 62 61
Wind_Direction
204 206 207 208 208 211 213 213 216 219 221 220 221 224 226 234 240 247 245 239 237 243 239 237 244 258 270 280 288 295 299 304 305 308 312 306 283 280 282 282 296 305 301 307 292
211 211 213 214 216 215 219 222 225 227 229 230 232 236 244 249 251 249 251 250 248 246 249 251 256 262 271 277 283 288 294 301 301 303 299 286 279 284 290 281 281 297 303 297 284
216 217 218 217 219 221 222 225 230 232 235 236 238 239 243 251 255 257 253 252 253 254 257 258 261 266 273 278 280 285 293 299 298 294 287 272 278 282 286 284 272 285 288 291 283
219 219 221 222 222 223 225 228 232 234 236 237 240 244 247 251 256 259 258 257 255 257 258 261 264 268 271 274 279 287 292 294 290 287 278 271 281 281 280 279 278 284 290 287 277
222 223 223 224 226 228 229 231 233 235 238 240 242 245 248 252 257 261 261 259 260 262 263 265 267 269 271 275 280 289 293 289 281 282 278 275 278 278 274 276 279 280 283 282 274
227 228 227 228 228 230 233 235 236 238 240 242 244 247 249 253 257 261 263 263 263 264 265 267 268 270 273 277 279 285 288 281 276 279 276 275 277 276 274 273 274 278 279 277 273
232 232 232 233 233 234 236 237 238 241 241 243 246 249 252 255 259 263 264 264 266 268 268 268 269 270 271 274 278 280 279 274 274 278 278 276 276 276 275 276 275 275 275 273 271
233 234 236 237 237 238 239 240 241 242 244 246 248 250 253 256 261 263 265 268 267 268 268 269 270 271 272 273 275 277 273 270 272 274 273 272 275 275 274 272 274 277 276 275 277
233 234 236 238 240 241 241 242 243 245 246 248 250 252 255 257 261 264 266 267 268 269 270 271 271 271 272 273 272 271 268 269 269 265 269 270 272 274 273 273 274 276 277 278 278
235 236 236 238 240 242 244 245 246 247 248 249 252 255 257 259 260 263 265 266 268 270 270 269 269 270 272 269 266 266 271 266 265 265 262 263 264 269 273 277 278 278 279 278 276
237 237 238 239 241 243 245 247 247 248 250 252 253 254 257 258 261 262 264 267 268 269 270 267 267 270 264 264 267 267 264 262 265 264 262 261 265 270 274 276 276 275 274 274 272
239 240 240 242 242 243 246 247 249 251 249 251 253 254 255 257 258 260 262 264 266 266 266 267 266 262 263 264 264 264 266 267 261 259 259 261 265 269 272 275 274 272 268 267 267
240 240 240 239 241 242 248 249 250 251 252 249 252 254 256 257 258 258 259 259 261 263 264 264 263 260 263 264 266 265 265 265 260 256 259 264 266 270 271 271 270 267 265 267 269
238 240 243 242 242 240 243 247 251 253 253 249 248 253 253 256 255 257 260 261 261 261 261 260 264 268 263 262 267 265 264 261 261 262 263 262 271 273 268 268 268 266 267 268 274
239 237 242 247 242 242 239 243 247 248 252 253 250 249 252 255 259 256 258 257 258 259 259 263 263 265 267 268 266 266 261 262 263 263 265 264 271 272 266 265 264 266 268 270 272
241 237 236 240 246 240 238 239 243 244 249 252 252 250 250 251 255 259 256 256 257 261 263 262 267 269 266 264 267 268 265 265 265 265 264 266 272 270 268 261 263 267 269 270 273
242 242 241 240 244 242 237 236 237 241 250 252 254 256 256 255 255 258 261 262 260 262 260 263 268 272 268 263 269 267 266 266 264 265 270 272 265 269 271 267 265 265 266 268 269
248 242 243 243 245 246 242 237 239 252 251 254 255 256 258 258 261 261 260 260 261 269 263 262 263 273 269 261 266 263 258 258 262 267 269 267 267 272 271 274 275 270 271 272 275
227 233 244 244 247 246 244 240 244 249 252 250 251 257 259 262 265 262 261 261 262 264 263 260 261 268 265 257 259 261 259 260 260 260 263 267 272 273 273 273 272 276 279 281 282
228 234 234 233 234 246 243 246 249 249 251 254 250 254 260 260 261 262 264 261 261 261 262 263 261 263 260 257 257 258 256 253 258 265 269 271 272 274 275 273 274 275 278 281 281
236 235 233 234 234 239 245 247 247 249 245 249 251 251 255 253 257 261 261 257 254 256 259 258 259 261 259 259 260 255 253 255 259 260 267 270 273 277 276 276 275 277 283 284 282
233 235 236 229 228 235 239 241 243 242 243 242 248 246 245 248 250 252 250 255 258 251 253 252 253 255 260 259 256 249 247 249 254 266 275 272 267 273 277 279 281 283 284 280 279
234 238 234 222 225 235 235 236 239 246 241 244 242 241 249 251 251 247 248 253 250 250 253 254 255 256 256 255 255 255 251 258 261 264 266 267 271 274 278 282 285 283 281 281 283
240 232 229 227 228 233 236 239 240 244 244 246 242 245 250 251 246 250 248 253 254 256 257 256 256 258 266 266 261 258 257 260 260 262 268 272 271 273 279 280 280 277 276 279 277
230 234 227 227 226 228 231 235 238 240 241 242 243 242 249 250 248 253 253 254 258 258 259 258 259 260 264 262 260 259 255 256 260 268 266 276 271 271 275 276 277 274 273 274 276
227 225 225 228 226 231 231 232 234 234 236 240 245 244 247 250 250 250 257 256 255 257 258 261 264 264 263 262 261 259 258 262 262 263 268 273 275 273 278 276 272 268 273 275 278
225 236 234 230 230 232 233 236 236 240 239 241 245 248 251 249 249 252 253 253 255 257 260 261 261 261 261 262 262 260 261 262 267 269 271 271 274 274 269 269 267 268 270 275 278